Location: Valley View Observatory
(41.0081°N, 76.5874°W)
Time: 23:22:22
(UTC-04:00)

Daily predictions for brighter satellites

Satellite Brightness Start Highest point End
(mag) Time Altitude Azimuth Time Altitude Azimuth Time Altitude Azimuth
Cosmos 2297 3.7 19:12:04 10° NNW 19:17:44 65° ENE 19:23:19 10° SSE
Meteor 1-22 Rocket 4.2 19:13:23 10° S 19:18:36 56° E 19:23:47 10° NNE
NOSS 3-2 (C) 3.7 19:13:32 10° S 19:19:16 47° ESE 19:25:28 10° NE
Resurs 01 Rocket 2.6 19:15:33 10° SE 19:19:17 27° ENE 19:23:01 10° N
SAR-Lupe-4 3.7 19:16:42 10° SSE 19:20:11 53° ENE 19:23:41 10° N
Spot 2 Rocket 4.1 19:20:50 10° SE 19:25:23 35° ENE 19:29:56 10° N
Meteor 1-24 Rocket 3.7 19:21:38 10° N 19:27:18 75° E 19:32:43 10° SSE
Cosmos 1707 3.4 19:23:57 10° NNW 19:27:46 61° W 19:31:33 10° S
Cosmos 2369 Rocket 4.0 19:26:11 10° NNE 19:29:08 14° NE 19:32:05 10° ENE
Cosmos 2056 Rocket 3.6 19:25:01 10° NNW 19:30:28 90° WSW 19:35:54 10° SSE
Meteor 2-5 Rocket 4.5 19:25:16 10° NNW 19:30:47 58° W 19:36:11 10° S
Helios 1A 3.8 19:27:18 10° SE 19:30:58 30° ENE 19:34:40 10° N
ATLAS CENTAUR R/B 3.5 19:27:46 10° SSW 19:32:23 65° ESE 19:46:40 10° NE
Cosmos 1603 4.5 19:29:35 10° SSE 19:34:29 30° ESE 19:39:26 10° NE
Cosmos 1072 Rocket 4.4 19:30:09 10° S 19:36:10 64° E 19:42:12 10° NNE
SJ-6B 2.8 19:38:11 10° SSE 19:42:09 85° ENE 19:46:14 10° NNW
GPS 2-04 Rocket1 4.5 19:41:36 10° S 19:43:32 14° SSE 19:45:05 11° SE
COSMO-SKYMED 1 3.7 19:40:08 10° N 19:44:19 48° WNW 19:48:29 10° SSW
Cosmos 2333 Rocket 4.2 19:42:46 10° WSW 19:47:51 31° NW 19:52:58 10° N
Cosmos 192 4.3 19:46:21 10° SSW 19:51:17 84° ESE 19:56:17 10° NNE
NOAA 12 4.1 19:46:06 10° SSE 19:51:21 88° WSW 19:56:40 10° NNW
Timation 1 Rocket 4.3 19:45:51 10° NNW 19:51:52 88° ENE 19:57:50 10° SSE
Spot 1 4.2 19:47:16 10° SSE 19:52:00 72° ENE 19:56:30 10° N
Cosmos 1758 3.5 19:49:13 10° S 19:53:10 50° E 19:57:09 10° NNE
HJ-1C 3.4 19:51:02 10° SSE 19:54:21 61° ENE 19:57:41 10° N
FengYun 1-2 T 4.3 19:50:49 10° SSE 19:56:10 54° ENE 20:01:30 10° N
USA 215 3.2 19:49:41 10° NE 19:56:12 68° SE 20:02:41 10° SW
In-Cosmos 22 4.2 19:50:56 10° N 19:56:43 70° E 20:02:26 10° SSE
OAO 3 Rocket 3.9 19:55:25 10° WSW 19:59:53 41° S 20:02:48 20° ESE
Aureole 2 Rocket 4.0 19:55:43 10° SW 19:59:58 49° WNW 20:04:09 10° N
Cosmos 1674 3.8 19:57:39 10° NNE 20:00:52 24° ENE 20:01:38 23° E
ISS -1.6 19:58:37 10° S 20:00:33 18° SE 20:00:33 18° SE
Cosmos 1766 Rocket 3.4 20:00:02 10° N 20:04:26 84° E 20:08:46 10° S
ALOS 2.5 20:04:02 10° SE 20:08:31 49° ENE 20:13:01 10° N
CZ-4C R/B 4.2 20:04:12 10° W 20:08:53 28° NW 20:14:05 10° NNE
Cosmos 2034 Rocket 4.0 20:04:33 10° S 20:10:49 82° E 20:17:10 10° N
Helios 1B rocket 2.3 20:07:52 10° NNE 20:12:01 88° ESE 20:16:07 10° SSW
Meteor 1-29 2.8 20:09:03 10° NNE 20:12:34 76° ESE 20:16:04 10° S
Cosmos 1464 Rocket 4.3 20:06:28 10° SSW 20:12:42 72° W 20:18:54 10° N
Meteor 1-21 Rocket 4.1 20:08:16 10° N 20:13:49 72° E 20:19:19 10° SSE
ATLAS 5 CENTAUR R/B 1.9 20:10:02 10° SW 20:14:48 78° NW 20:20:00 10° NNE
ERS-1 Rocket 4.4 20:15:07 19° ENE 20:15:13 19° ENE 20:18:43 10° NNE
Cosmos 1076 Rocket 4.1 20:11:25 10° NNW 20:15:41 58° W 20:19:57 10° S
SeaSat 1 3.2 20:12:48 10° NE 20:17:08 30° ESE 20:21:25 10° S
Atlas Centaur 2 4.5 20:10:26 10° WSW 20:17:13 27° SSW 20:23:25 11° SSE
Cosmos-2242 3.0 20:17:15 10° S 20:21:37 85° W 20:26:02 10° N
CZ-4B DEB 2.7 20:23:55 45° SE 20:24:46 70° ENE 20:28:01 10° N
Cosmos 1452 Rocket 3.8 20:21:48 10° NNW 20:27:02 67° WSW 20:32:13 10° S
SL-16 R/B 3.8 20:25:55 10° SW 20:31:07 36° WNW 20:36:23 10° N
NOSS 3-2 (A) 4.5 20:25:51 10° WSW 20:31:44 48° NW 20:38:11 10° NNE
Cosmos 2151 4.2 20:30:47 10° NNE 20:33:20 26° NE 20:33:20 26° NE
CZ-2D R/B 3.1 20:33:52 42° SSE 20:35:05 75° ENE 20:38:59 10° N
Cosmos 1842 Rocket 3.4 20:32:31 10° S 20:36:48 66° E 20:41:07 10° NNE
Cosmos 1500 Rocket 3.5 20:33:43 10° N 20:38:08 67° E 20:39:25 44° SSE
SL-8 R/B 3.6 20:36:22 10° SW 20:41:06 68° SE 20:42:04 52° E
Cosmos 1544 3.7 20:38:24 10° SSW 20:42:04 58° W 20:45:47 10° N
Gbstr 26 Del rocket 3.7 20:42:14 10° SSW 20:45:51 42° SSE 20:45:51 42° SSE
Cosmos 1953 4.0 20:43:37 10° SW 20:47:16 34° WNW 20:50:55 10° N
Cosmos 1420 Rocket 4.1 20:43:52 10° NNW 20:49:11 77° WSW 20:52:00 28° S
H-2A R/B 3.0 20:50:10 48° SSW 20:51:08 70° W 20:55:00 10° NNW
FENGYUN 3A 3.9 20:47:46 10° S 20:53:00 66° W 20:58:23 10° NNW
Resurs 01 Rocket 3.6 20:51:51 10° SSW 20:55:40 28° W 20:59:31 10° NW
ASTEX 1 3.7 20:53:17 10° N 20:58:10 66° W 21:03:00 10° SSW
CENTAUR R/B 2.3 20:59:44 10° SSW 21:05:43 73° ESE 21:12:28 10° NE
Cosmos 1048 Rocket 4.4 21:02:51 10° SSW 21:08:06 61° WNW 21:13:19 10° NNE
Cosmos 2369 Rocket 2.0 21:08:22 10° NNW 21:14:03 83° ENE 21:14:17 80° ESE
Cosmos 1943 3.0 21:08:27 10° SSW 21:14:06 88° ESE 21:19:45 10° NNE
Cosmos 1470 3.9 21:13:50 38° WSW 21:14:28 42° WNW 21:18:11 10° N
Envisat 3.7 21:16:19 43° NNE 21:16:19 43° NNE 21:19:57 10° N
Cosmos 1943 Rocket 3.1 21:12:38 10° N 21:16:39 35° NNE 21:16:39 35° NNE
Cosmos 2263 4.3 21:13:02 10° NNW 21:18:21 63° NE 21:18:21 63° NE
Cosmos 2279 Rocket 4.3 21:22:58 52° NE 21:22:58 52° NE 21:27:45 10° NNE
GP-B 3.8 21:19:33 10° N 21:23:34 53° WNW 21:23:34 53° WNW
Cosmos 1655 Rocket 3.8 21:20:18 10° N 21:26:29 81° ENE 21:26:29 81° ENE
USA 215 4.3 21:33:35 13° NE 21:38:58 42° NNW 21:45:01 10° W
Cosmos 2026 Rocket 4.1 21:36:42 10° NNW 21:42:45 68° W 21:42:57 68° WSW
ERS-1 Rocket 4.2 21:55:08 38° NW 21:55:08 38° NW 21:58:30 10° NNW
SeaSat 1 3.8 21:50:09 10° N 21:54:40 37° NW 21:59:10 10° WSW
CENTAUR R/B 4.3 22:51:49 10° W 22:57:06 27° NW 23:02:57 10° NNE
